FW8182 Weather Reports


time (UTC)temp
C
wind
direction
speed
KPH
gust
KPH
rain 1hr
cm
rain 24hr
cm
rain mn
cm
humidity
%
barometer
mb
20260906232531 26 236 9.7 24.1 0.00 0.00 0.00 25 1004.2
20260906232032 27 236 8.0 19.3 0.00 0.00 0.00 24 1004.3
20260906231530 27 244 8.0 14.5 0.00 0.00 0.00 24 1004.4
20260906231032 27 218 3.2 9.7 0.00 0.00 0.00 24 1004.5
20260906230530 27 228 3.2 12.9 0.00 0.00 0.00 24 1004.5
20260906230029 27 291 3.2 12.9 0.00 0.00 0.00 24 1004.6
20260906225530 27 211 3.2 12.9 0.00 0.00 0.00 25 1004.6
20260906225028 26 215 0.0 22.5 0.00 0.00 0.00 25 1004.6
20260906224532 27 220 3.2 22.5 0.00 0.00 0.00 24 1004.7
20260906224027 27 261 3.2 24.1 0.00 0.00 0.00 23 1004.6
20260906223526 28 218 12.9 24.1 0.00 0.00 0.00 23 1004.6
20260906223025 27 177 3.2 12.9 0.00 0.00 0.00 24 1004.7
20260906222528 27 236 6.4 12.9 0.00 0.00 0.00 24 1004.7
20260906222025 26 167 3.2 9.7 0.00 0.00 0.00 25 1004.9
20260906221523 26 171 4.8 11.3 0.00 0.00 0.00 25 1005.0
20260906221022 26 222 1.6 9.7 0.00 0.00 0.00 26 1005.0
20260906220524 25 204 0.0 6.4 0.00 0.00 0.00 26 1005.1
20260906220021 25 230 0.0 12.9 0.00 0.00 0.00 26 1005.2
20260906215521 26 208 4.8 12.9 0.00 0.00 0.00 26 1005.2
20260906215021 25 250 0.0 11.3 0.00 0.00 0.00 26 1005.2
20260906214527 25 250 0.0 14.5 0.00 0.00 0.00 26 1005.3
20260906214020 26 231 6.4 17.7 0.00 0.00 0.00 26 1005.3
20260906213521 26 239 6.4 17.7 0.00 0.00 0.00 25 1005.4
20260906213020 26 213 3.2 12.9 0.00 0.00 0.00 24 1005.5
20260906212520 26 213 3.2 16.1 0.00 0.00 0.00 24 1005.5
20260906212020 27 242 6.4 16.1 0.00 0.00 0.00 24 1005.5
20260906211519 27 229 8.0 16.1 0.00 0.00 0.00 23 1005.5
20260906211018 27 173 4.8 14.5 0.00 0.00 0.00 24 1005.6
20260906210521 27 190 8.0 14.5 0.00 0.00 0.00 24 1005.6
20260906210017 27 223 1.6 12.9 0.00 0.00 0.00 24 1005.6
20260906205517 26 145 4.8 12.9 0.00 0.00 0.00 25 1005.7
20260906205016 26 186 1.6 16.1 0.00 0.00 0.00 25 1005.8
20260906204516 27 211 3.2 16.1 0.00 0.00 0.00 24 1005.8
20260906204015 27 213 3.2 14.5 0.00 0.00 0.00 24 1005.9
20260906203515 27 169 4.8 9.7 0.00 0.00 0.00 24 1005.9
20260906203013 27 192 4.8 12.9 0.00 0.00 0.00 24 1006.0
20260906202512 26 191 4.8 12.9 0.00 0.00 0.00 25 1006.1
20260906202014 26 200 6.4 9.7 0.00 0.00 0.00 25 1006.1
20260906201512 26 215 0.0 12.9 0.00 0.00 0.00 25 1006.1
20260906201010 26 213 4.8 11.3 0.00 0.00 0.00 25 1006.3
20260906200510 26 209 3.2 12.9 0.00 0.00 0.00 25 1006.4
20260906200010 26 110 0.0 22.5 0.00 0.00 0.00 25 1006.4
20260906195509 26 199 4.8 22.5 0.00 0.00 0.00 25 1006.4
20260906195008 26 207 1.6 17.7 0.00 0.00 0.00 25 1006.4
20260906194509 26 218 6.4 17.7 0.00 0.00 0.00 24 1006.5
20260906194007 27 219 6.4 17.7 0.00 0.00 0.00 23 1006.6
20260906193507 27 250 11.3 17.7 0.00 0.00 0.00 23 1006.6
20260906193005 27 207 3.2 12.9 0.00 0.00 0.00 23 1006.7
20260906192504 26 178 3.2 17.7 0.00 0.00 0.00 23 1006.7
20260906192003 26 217 9.7 17.7 0.00 0.00 0.00 24 1006.7
20260906191504 25 223 0.0 12.9 0.00 0.00 0.00 24 1006.8
20260906191001 25 213 3.2 14.5 0.00 0.00 0.00 24 1006.9
20260906190501 26 216 4.8 14.5 0.00 0.00 0.00 24 1006.8
20260906190114 26 219 1.6 11.3 0.00 0.00 0.00 24 1006.9
20260906185559 25 217 6.4 11.3 0.00 0.00 0.00 25 1007.0
20260906185058 25 224 1.6 14.5 0.00 0.00 0.00 25 1007.1
20260906184558 25 226 4.8 14.5 0.00 0.00 0.00 25 1007.2
20260906184101 25 217 0.0 17.7 0.00 0.00 0.00 25 1007.2
20260906183600 25 243 3.2 17.7 0.00 0.00 0.00 25 1007.2
20260906183101 25 249 9.7 17.7 0.00 0.00 0.00 24 1007.2
20260906182559 25 225 3.2 17.7 0.00 0.00 0.00 24 1007.2
20260906182056 26 260 0.0 17.7 0.00 0.00 0.00 24 1007.3
20260906181556 26 221 0.0 17.7 0.00 0.00 0.00 24 1007.5
20260906181054 26 153 0.0 11.3 0.00 0.00 0.00 24 1007.6
20260906180554 25 163 0.0 14.5 0.00 0.00 0.00 25 1007.7
20260906180053 25 235 1.6 16.1 0.00 0.00 0.00 25 1007.7
20260906175552 25 221 0.0 6.4 0.00 0.00 0.00 24 1007.9
20260906175056 25 242 0.0 9.7 0.00 0.00 0.00 24 1008.0
20260906174551 26 215 3.2 9.7 0.00 0.00 0.00 24 1008.0
20260906174051 25 184 0.0 9.7 0.00 0.00 0.00 25 1008.1
20260906173550 25 117 0.0 12.9 0.00 0.00 0.00 26 1008.3
20260906173049 25 228 3.2 11.3 0.00 0.00 0.00 25 1008.4
20260906172550 25 253 4.8 11.3 0.00 0.00 0.00 26 1008.5
20260906172048 25 209 3.2 12.9 0.00 0.00 0.00 26 1008.6
20260906171547 25 113 1.6 12.9 0.00 0.00 0.00 27 1008.7
20260906171045 24 200 0.0 11.3 0.00 0.00 0.00 27 1008.7
20260906170544 23 207 6.4 9.7 0.00 0.00 0.00 28 1008.8
20260906170043 23 208 1.6 14.5 0.00 0.00 0.00 27 1009.0
20260906165543 23 240 3.2 14.5 0.00 0.00 0.00 27 1008.9
20260906165041 23 186 0.0 11.3 0.00 0.00 0.00 27 1008.8
20260906164540 23 234 3.2 16.1 0.00 0.00 0.00 27 1008.9
20260906164040 23 248 1.6 16.1 0.00 0.00 0.00 27 1008.9
20260906163538 23 218 0.0 11.3 0.00 0.00 0.00 27 1008.9
20260906163038 22 217 0.0 9.7 0.00 0.00 0.00 27 1008.9
20260906162537 22 216 0.0 6.4 0.00 0.00 0.00 27 1009.0
20260906162036 22 216 1.6 8.0 0.00 0.00 0.00 26 1008.9
20260906161537 22 220 1.6 9.7 0.00 0.00 0.00 27 1008.9
20260906161036 22 219 1.6 9.7 0.00 0.00 0.00 27 1009.0
20260906160536 22 165 0.0 1.6 0.00 0.00 0.00 27 1009.1
20260906160040 21 228 0.0 8.0 0.00 0.00 0.00 27 1009.1
20260906155536 21 228 0.0 8.0 0.00 0.00 0.00 27 1009.1
20260906155037 21 228 0.0 3.2 0.00 0.00 0.00 27 1009.1
20260906154541 21 234 0.0 8.0 0.00 0.00 0.00 27 1009.0
20260906154037 21 236 0.0 11.3 0.00 0.00 0.00 27 1009.0
20260906153535 22 240 0.0 11.3 0.00 0.00 0.00 26 1009.0
20260906153035 22 169 1.6 8.0 0.00 0.00 0.00 25 1009.0
20260906152538 22 278 0.0 0.0 0.00 0.00 0.00 26 1009.0
20260906152034 22 278 0.0 0.0 0.00 0.00 0.00 26 1008.9
20260906151532 21 278 0.0 0.0 0.00 0.00 0.00 26 1009.0
20260906151031 21 278 0.0 0.0 0.00 0.00 0.00 26 1009.0
20260906150529 21 278 0.0 0.0 0.00 0.00 0.00 27 1009.0
20260906150038 21 278 0.0 0.0 0.00 0.00 0.00 28 1009.1
20260906145528 20 278 0.0 3.2 0.00 0.00 0.00 28 1009.1
20260906145027 20 278 0.0 3.2 0.00 0.00 0.00 29 1009.1
20260906144530 20 278 0.0 0.0 0.00 0.00 0.00 30 1009.1
20260906144023 20 278 0.0 3.2 0.00 0.00 0.00 30 1009.1
20260906143522 19 278 0.0 3.2 0.00 0.00 0.00 30 1009.2
20260906143020 18 278 0.0 3.2 0.00 0.00 0.00 30 1009.2
20260906142519 18 278 1.6 3.2 0.00 0.00 0.00 30 1009.2
20260906142020 18 275 0.0 0.0 0.00 0.00 0.00 30 1009.2
20260906141518 18 275 0.0 0.0 0.00 0.00 0.00 31 1009.2
20260906141016 17 275 0.0 0.0 0.00 0.00 0.00 31 1009.3
20260906140516 17 275 0.0 0.0 0.00 0.00 0.00 31 1009.4
20260906140020 17 275 0.0 0.0 0.00 0.00 0.00 31 1009.3
20260906135514 17 275 0.0 0.0 0.00 0.00 0.00 30 1009.4
20260906135012 17 275 0.0 0.0 0.00 0.00 0.00 31 1009.2
20260906134533 17 275 0.0 0.0 0.00 0.00 0.00 31 1009.3
20260906134010 17 275 0.0 0.0 0.00 0.00 0.00 31 1009.1
20260906133509 17 275 0.0 0.0 0.00 0.00 0.00 32 1009.1
20260906133009 16 275 0.0 0.0 0.00 0.00 0.00 32 1009.0
20260906132510 16 275 0.0 0.0 0.00 0.00 0.00 33 1009.1
20260906132012 16 275 0.0 0.0 0.00 0.00 0.00 32 1009.1
20260906131508 16 275 0.0 0.0 0.00 0.00 0.00 32 1009.1
20260906131012 16 275 0.0 0.0 0.00 0.00 0.00 32 1009.0
20260906130507 16 275 0.0 0.0 0.00 0.00 0.00 32 1008.9
20260906130008 16 275 0.0 0.0 0.00 0.00 0.00 33 1008.8
20260906125506 16 275 0.0 0.0 0.00 0.00 0.00 33 1008.7
20260906125005 16 275 0.0 0.0 0.00 0.00 0.00 33 1008.7
20260906124505 15 275 0.0 0.0 0.00 0.00 0.00 33 1008.7
20260906124005 15 275 0.0 0.0 0.00 0.00 0.00 33 1008.7
20260906123505 15 275 0.0 0.0 0.00 0.00 0.00 33 1008.6
20260906123004 16 275 0.0 0.0 0.00 0.00 0.00 33 1008.6
20260906122506 15 275 0.0 0.0 0.00 0.00 0.00 33 1008.6
20260906122004 15 275 0.0 0.0 0.00 0.00 0.00 34 1008.6
20260906121504 15 275 0.0 0.0 0.00 0.00 0.00 34 1008.6
20260906121004 15 275 0.0 0.0 0.00 0.00 0.00 34 1008.5
20260906120504 15 275 0.0 0.0 0.00 0.00 0.00 34 1008.6
20260906120003 15 275 0.0 0.0 0.00 0.00 0.00 35 1008.7
20260906115503 15 275 0.0 0.0 0.00 0.00 0.00 35 1008.7
20260906115001 15 275 0.0 0.0 0.00 0.00 0.00 35 1008.6
20260906114503 15 275 0.0 0.0 0.00 0.00 0.00 34 1008.5
20260906114100 15 275 0.0 0.0 0.00 0.00 0.00 34 1008.5
20260906113600 15 275 0.0 0.0 0.00 0.00 0.00 34 1008.5
20260906113100 16 275 0.0 0.0 0.00 0.00 0.00 33 1008.5
20260906112559 16 275 0.0 0.0 0.00 0.00 0.00 33 1008.5
20260906112102 16 275 0.0 0.0 0.00 0.00 0.00 33 1008.6
20260906111602 16 275 0.0 0.0 0.00 0.00 0.00 32 1008.5
20260906111058 16 275 0.0 0.0 0.00 0.00 0.00 33 1008.5
20260906110601 16 275 0.0 0.0 0.00 0.00 0.00 33 1008.4
20260906110100 16 275 0.0 4.8 0.00 0.00 0.00 33 1008.4
20260906105601 16 275 0.0 9.7 0.00 0.00 0.00 33 1008.3
20260906105057 15 275 3.2 6.4 0.00 0.00 0.00 33 1008.3
20260906104623 15 275 0.0 4.8 0.00 0.00 0.00 34 1008.2
20260906104056 15 275 0.0 0.0 0.00 0.00 0.00 34 1008.3
20260906103556 15 275 0.0 0.0 0.00 0.00 0.00 34 1008.2
20260906103055 15 275 0.0 0.0 0.00 0.00 0.00 34 1008.1
20260906102555 15 275 0.0 0.0 0.00 0.00 0.00 34 1008.2
20260906102054 15 275 0.0 0.0 0.00 0.00 0.00 34 1008.1
20260906101554 15 275 0.0 6.4 0.00 0.00 0.00 34 1008.1
20260906101055 15 275 3.2 6.4 0.00 0.00 0.00 34 1008.1
20260906100553 16 275 3.2 6.4 0.00 0.00 0.00 34 1008.1
20260906100053 16 275 3.2 6.4 0.00 0.00 0.00 34 1008.1
20260906095552 16 275 0.0 9.7 0.00 0.00 0.00 34 1008.0
20260906095052 16 275 4.8 9.7 0.00 0.00 0.00 35 1007.9
20260906094551 16 275 0.0 6.4 0.00 0.00 0.00 35 1008.0
20260906094050 16 275 3.2 6.4 0.00 0.00 0.00 35 1008.0
20260906093551 16 275 1.6 9.7 0.00 0.00 0.00 35 1008.1
20260906093107 16 275 4.8 9.7 0.00 0.00 0.00 34 1008.1
20260906092550 16 275 4.8 11.3 0.00 0.00 0.00 35 1008.0
20260906092050 16 275 6.4 11.3 0.00 0.00 0.00 35 1008.0
20260906091550 16 275 0.0 12.9 0.00 0.00 0.00 36 1008.0
20260906091051 16 274 6.4 12.9 0.00 0.00 0.00 36 1008.1
20260906090548 16 269 0.0 0.0 0.00 0.00 0.00 36 1008.1
20260906090050 16 269 0.0 0.0 0.00 0.00 0.00 36 1008.0
20260906085548 16 269 0.0 0.0 0.00 0.00 0.00 36 1008.1
20260906085052 16 269 0.0 0.0 0.00 0.00 0.00 36 1008.1
20260906084547 16 269 0.0 0.0 0.00 0.00 0.00 36 1008.1
20260906084048 16 269 0.0 0.0 0.00 0.00 0.00 36 1008.1
20260906083547 16 269 0.0 0.0 0.00 0.00 0.00 37 1008.2
20260906083047 16 269 0.0 0.0 0.00 0.00 0.00 37 1008.2
20260906082546 16 269 0.0 0.0 0.00 0.00 0.00 37 1008.2
20260906082046 16 269 0.0 0.0 0.00 0.00 0.00 37 1008.2
20260906081546 16 269 0.0 0.0 0.00 0.00 0.00 37 1008.3
20260906081045 16 269 0.0 0.0 0.00 0.00 0.00 37 1008.2
20260906080547 16 269 0.0 0.0 0.00 0.00 0.00 38 1008.3
20260906080046 16 269 0.0 0.0 0.00 0.00 0.00 38 1008.3
20260906075545 16 269 0.0 0.0 0.00 0.00 0.00 38 1008.2
20260906075045 16 269 0.0 0.0 0.00 0.00 0.00 39 1008.2
20260906074544 16 269 0.0 0.0 0.00 0.00 0.00 39 1008.3
20260906074043 16 269 0.0 0.0 0.00 0.00 0.00 39 1008.3
20260906073545 16 269 0.0 0.0 0.00 0.00 0.00 39 1008.4
20260906073042 16 269 0.0 0.0 0.00 0.00 0.00 39 1008.4
20260906072542 16 269 0.0 0.0 0.00 0.00 0.00 39 1008.4
20260906072042 16 269 0.0 0.0 0.00 0.00 0.00 39 1008.3
20260906071542 16 269 0.0 0.0 0.00 0.00 0.00 39 1008.2
20260906071040 16 269 0.0 0.0 0.00 0.00 0.00 39 1008.3
20260906070540 16 268 0.0 0.0 0.00 0.00 0.00 39 1008.3
20260906070039 16 268 0.0 0.0 0.00 0.00 0.00 39 1008.2
20260906065538 16 268 0.0 0.0 0.00 0.00 0.00 39 1008.2
20260906065138 16 267 0.0 0.0 0.00 0.00 0.00 39 1008.2
20260906064536 16 267 0.0 0.0 0.00 0.00 0.00 39 1008.2
20260906064035 16 266 0.0 0.0 0.00 0.00 0.00 39 1008.2
20260906063635 16 265 0.0 0.0 0.00 0.00 0.00 39 1008.2
20260906063034 16 264 0.0 0.0 0.00 0.00 0.00 39 1008.1
20260906062533 16 264 0.0 0.0 0.00 0.00 0.00 39 1008.0
20260906062033 16 263 0.0 0.0 0.00 0.00 0.00 39 1008.0
20260906061534 16 262 0.0 0.0 0.00 0.00 0.00 39 1008.0
20260906061031 16 261 0.0 0.0 0.00 0.00 0.00 39 1007.9
20260906060531 17 261 0.0 0.0 0.00 0.00 0.00 39 1007.9
20260906060030 17 261 0.0 0.0 0.00 0.00 0.00 39 1007.8
20260906055529 17 261 0.0 0.0 0.00 0.00 0.00 39 1007.9
20260906055030 17 261 0.0 0.0 0.00 0.00 0.00 39 1007.9
20260906054530 17 261 0.0 0.0 0.00 0.00 0.00 39 1007.9
20260906054029 17 261 0.0 0.0 0.00 0.00 0.00 39 1007.9
20260906053529 17 261 0.0 0.0 0.00 0.00 0.00 39 1008.0
20260906053028 17 261 0.0 0.0 0.00 0.00 0.00 39 1008.0
20260906052528 17 261 0.0 0.0 0.00 0.00 0.00 39 1007.9
20260906052028 17 261 0.0 0.0 0.00 0.00 0.00 38 1008.0
20260906051532 17 261 0.0 0.0 0.00 0.00 0.00 38 1008.0
20260906051028 17 256 0.0 1.6 0.00 0.00 0.00 39 1008.0
20260906050528 17 239 0.0 6.4 0.00 0.00 0.00 39 1007.9
20260906050028 17 239 3.2 6.4 0.00 0.00 0.00 39 1007.9
20260906045527 17 239 3.2 8.0 0.00 0.00 0.00 39 1007.9
20260906045027 17 239 1.6 8.0 0.00 0.00 0.00 40 1007.9
20260906044527 17 238 0.0 0.0 0.00 0.00 0.00 40 1007.9
20260906044027 17 238 0.0 0.0 0.00 0.00 0.00 39 1007.9
20260906043527 17 238 0.0 0.0 0.00 0.00 0.00 39 1008.0
20260906043027 17 238 0.0 0.0 0.00 0.00 0.00 39 1007.9
20260906042526 17 238 0.0 0.0 0.00 0.00 0.00 39 1007.8
20260906042026 17 238 0.0 0.0 0.00 0.00 0.00 38 1007.8
20260906041526 17 238 0.0 0.0 0.00 0.00 0.00 38 1007.8
20260906041026 17 238 0.0 0.0 0.00 0.00 0.00 37 1007.8
20260906040525 18 238 0.0 0.0 0.00 0.00 0.00 37 1007.8
20260906040031 18 238 0.0 0.0 0.00 0.00 0.00 36 1007.8
20260906035526 18 238 0.0 0.0 0.00 0.00 0.00 36 1007.8
20260906035025 18 238 0.0 0.0 0.00 0.00 0.00 36 1007.8
20260906034527 18 238 0.0 0.0 0.00 0.00 0.00 36 1007.8
20260906034024 18 238 0.0 1.6 0.00 0.00 0.00 35 1007.7
20260906033524 18 238 0.0 1.6 0.00 0.00 0.00 35 1007.7
20260906033024 18 238 0.0 0.0 0.00 0.00 0.00 35 1007.7
20260906032523 18 238 0.0 0.0 0.00 0.00 0.00 35 1007.6
20260906032024 19 238 0.0 0.0 0.00 0.00 0.00 35 1007.6
20260906031524 19 238 0.0 0.0 0.00 0.00 0.00 35 1007.5
20260906031026 19 238 0.0 0.0 0.00 0.00 0.00 35 1007.4
20260906030524 19 238 0.0 0.0 0.00 0.00 0.00 35 1007.4
20260906030023 19 238 0.0 0.0 0.00 0.00 0.00 34 1007.3
20260906025524 20 238 0.0 0.0 0.00 0.00 0.00 34 1007.2
20260906025023 20 238 0.0 0.0 0.00 0.00 0.00 34 1007.1
20260906024523 20 238 0.0 3.2 0.00 0.00 0.00 33 1007.1
20260906024022 20 238 0.0 8.0 0.00 0.00 0.00 33 1007.0
20260906023526 20 238 0.0 12.9 0.00 0.00 0.00 32 1007.0
20260906023022 20 238 4.8 14.5 0.00 0.00 0.00 32 1006.8
20260906022522 20 237 0.0 14.5 0.00 0.00 0.00 31 1006.8
20260906022022 20 236 1.6 11.3 0.00 0.00 0.00 30 1006.7
20260906021522 20 234 3.2 11.3 0.00 0.00 0.00 30 1006.6
20260906021024 20 234 0.0 1.6 0.00 0.00 0.00 30 1006.5
20260906020522 20 232 0.0 0.0 0.00 0.00 0.00 30 1006.5
20260906020024 20 232 0.0 0.0 0.00 0.00 0.00 31 1006.4
20260906015521 20 232 0.0 0.0 0.00 0.00 0.00 31 1006.4
20260906015021 20 232 0.0 0.0 0.00 0.00 0.00 31 1006.5
20260906014524 21 232 0.0 0.0 0.00 0.00 0.00 31 1006.5
20260906014019 21 232 0.0 0.0 0.00 0.00 0.00 31 1006.4
20260906013521 21 232 0.0 0.0 0.00 0.00 0.00 31 1006.4
20260906013027 21 232 0.0 0.0 0.00 0.00 0.00 31 1006.4
20260906012519 22 232 0.0 0.0 0.00 0.00 0.00 30 1006.4
20260906012019 22 232 0.0 0.0 0.00 0.00 0.00 30 1006.3
20260906011521 22 232 0.0 0.0 0.00 0.00 0.00 30 1006.3
20260906011019 22 232 0.0 4.8 0.00 0.00 0.00 30 1006.3
20260906010521 22 232 0.0 4.8 0.00 0.00 0.00 31 1006.3
20260906010019 22 232 0.0 6.4 0.00 0.00 0.00 30 1006.3
20260906005522 23 232 1.6 8.0 0.00 0.00 0.00 30 1006.4
20260906005019 23 232 0.0 8.0 0.00 0.00 0.00 30 1006.4
20260906004518 23 232 3.2 8.0 0.00 0.00 0.00 30 1006.3
20260906004017 23 229 1.6 9.7 0.00 0.00 0.00 30 1006.3
20260906003517 23 229 3.2 9.7 0.00 0.00 0.00 29 1006.2
20260906003018 23 229 3.2 11.3 0.00 0.00 0.00 29 1006.3
20260906002518 23 231 4.8 14.5 0.00 0.00 0.00 28 1006.1
20260906002019 24 217 3.2 14.5 0.00 0.00 0.00 27 1006.1
20260906001517 25 236 3.2 17.7 0.00 0.00 0.00 27 1006.1
20260906001016 25 223 11.3 17.7 0.00 0.00 0.00 27 1006.1
20260906000517 25 221 0.0 12.9 0.00 0.00 0.00 27 1006.1
20260906000017 25 214 6.4 14.5 0.00 0.00 0.00 26 1006.1
20260905235518 26 167 1.6 12.9 0.00 0.00 0.00 26 1006.0
20260905235020 26 219 4.8 12.9 0.00 0.00 0.00 26 1006.1
20260905234516 26 241 1.6 11.3 0.00 0.00 0.00 26 1006.2
20260905234017 26 216 3.2 11.3 0.00 0.00 0.00 27 1006.1
20260905233518 25 212 3.2 9.7 0.00 0.00 0.00 27 1006.2
20260905233017 25 177 0.0 17.7 0.00 0.00 0.00 27 1006.1